Time,TemperatureF,DewpointF,PressureIn,WindDirection,WindDirectionDegrees,WindSpeedMPH,WindSpeedGustMPH,Humidity,HourlyPrecipIn,Conditions,Clouds,dailyrainin,SolarRadiationWatts/m^2,SoftwareType,DateUTC
2013-04-19 00:01:00,68.5,66.1,30.07,ESE,109,4.2,6.9,92,0.00,CLR,OVC,0.02,0.0,WeatherDisplay:10.37,2013-04-19 04:01:00,
2013-04-19 00:06:00,68.5,66.1,30.07,South,169,1.8,3.5,92,0.00,RA,OVC,0.00,0.0,WeatherDisplay:10.37,2013-04-19 04:06:00,
2013-04-19 00:11:00,68.5,66.1,30.07,SSE,154,2.1,6.9,92,0.00,RA,OVC,0.00,0.0,WeatherDisplay:10.37,2013-04-19 04:11:00,
2013-04-19 00:16:00,68.5,66.1,30.06,SE,128,2.1,3.5,92,0.00,CLR,OVC,0.00,0.0,WeatherDisplay:10.37,2013-04-19 04:16:00,
2013-04-19 00:21:00,68.6,66.2,30.06,SSE,158,1.7,8.1,92,0.00,CLR,OVC,0.00,0.0,WeatherDisplay:10.37,2013-04-19 04:21:00,
2013-04-19 00:26:00,68.6,66.2,30.06,South,169,1.9,4.6,92,0.00,CLR,OVC,0.00,0.0,WeatherDisplay:10.37,2013-04-19 04:26:00,
2013-04-19 00:31:00,68.6,66.2,30.06,SSE,148,3.2,6.9,92,0.00,CLR,OVC,0.00,0.0,WeatherDisplay:10.37,2013-04-19 04:31:00,
2013-04-19 00:36:00,68.5,66.1,30.05,SSE,163,1.3,2.3,92,0.00,CLR,OVC,0.00,0.0,WeatherDisplay:10.37,2013-04-19 04:36:00,
2013-04-19 00:41:00,68.5,66.1,30.06,South,172,2.6,4.6,92,0.00,CLR,OVC,0.00,0.0,WeatherDisplay:10.37,2013-04-19 04:41:00,
2013-04-19 00:46:00,68.5,66.1,30.06,South,179,2.2,5.0,92,0.00,CLR,OVC,0.00,0.0,WeatherDisplay:10.37,2013-04-19 04:46:00,
2013-04-19 00:51:00,68.5,66.1,30.05,East,84,2.4,8.1,92,0.00,CLR,OVC,0.00,0.0,WeatherDisplay:10.37,2013-04-19 04:51:00,
2013-04-19 00:56:00,68.4,66.0,30.05,SE,130,1.1,4.6,92,0.00,CLR,OVC,0.00,0.0,WeatherDisplay:10.37,2013-04-19 04:56:00,
2013-04-19 01:01:00,68.3,66.2,30.05,SSE,159,2.1,3.5,93,0.00,CLR,OVC,0.00,0.0,WeatherDisplay:10.37,2013-04-19 05:01:00,
2013-04-19 01:06:00,68.3,66.2,30.05,SE,136,2.4,3.5,93,0.00,CLR,OVC,0.00,0.0,WeatherDisplay:10.37,2013-04-19 05:06:00,
2013-04-19 01:11:00,68.2,66.1,30.04,South,169,1.8,3.5,93,0.00,CLR,OVC,0.00,0.0,WeatherDisplay:10.37,2013-04-19 05:11:00,
2013-04-19 01:16:00,68.1,66.0,30.04,SSE,157,0.8,3.5,93,0.00,CLR,OVC,0.00,0.0,WeatherDisplay:10.37,2013-04-19 05:16:00,
2013-04-19 01:21:00,68.2,66.4,30.04,SSE,159,0.9,3.5,94,0.00,CLR,OVC,0.00,0.0,WeatherDisplay:10.37,2013-04-19 05:21:00,
2013-04-19 01:26:00,68.2,66.4,30.03,SE,131,1.6,4.0,94,0.00,CLR,OVC,0.00,0.0,WeatherDisplay:10.37,2013-04-19 05:26:00,
2013-04-19 01:31:00,68.3,66.5,30.03,SSE,155,2.8,3.5,94,0.00,CLR,OVC,0.00,0.0,WeatherDisplay:10.37,2013-04-19 05:31:00,
2013-04-19 01:36:00,68.5,66.7,30.02,SE,136,0.6,4.6,94,0.00,CLR,OVC,0.00,0.0,WeatherDisplay:10.37,2013-04-19 05:36:00,
2013-04-19 01:41:00,68.5,66.7,30.02,SSE,152,2.6,5.0,94,0.00,CLR,OVC,0.00,0.0,WeatherDisplay:10.37,2013-04-19 05:41:00,
2013-04-19 01:46:00,68.6,66.8,30.02,SSE,161,1.9,4.6,94,0.00,CLR,OVC,0.00,0.0,WeatherDisplay:10.37,2013-04-19 05:46:00,
2013-04-19 01:51:00,68.6,66.8,30.02,SE,146,1.0,3.5,94,0.00,CLR,OVC,0.00,0.0,WeatherDisplay:10.37,2013-04-19 05:51:00,
2013-04-19 01:56:00,68.7,66.9,30.01,SE,144,2.6,3.5,94,0.00,CLR,OVC,0.00,0.0,WeatherDisplay:10.37,2013-04-19 05:56:00,
2013-04-19 02:01:00,68.7,66.9,30.01,SE,141,1.2,3.5,94,0.00,CLR,OVC,0.00,0.0,WeatherDisplay:10.37,2013-04-19 06:01:00,
2013-04-19 02:06:00,68.6,66.5,30.01,SE,144,1.9,7.0,93,0.00,CLR,OVC,0.00,0.0,WeatherDisplay:10.37,2013-04-19 06:06:00,
2013-04-19 02:12:00,68.6,66.5,30.01,SE,146,0.4,2.3,93,0.00,CLR,OVC,0.00,0.0,WeatherDisplay:10.37,2013-04-19 06:12:00,
2013-04-19 02:17:00,68.5,66.4,30.01,East,84,3.9,5.8,93,0.00,CLR,OVC,0.00,0.0,WeatherDisplay:10.37,2013-04-19 06:17:00,
2013-04-19 02:22:00,68.6,66.5,30.00,South,175,2.2,5.0,93,0.00,CLR,OVC,0.00,0.0,WeatherDisplay:10.37,2013-04-19 06:22:00,
2013-04-19 02:27:00,68.6,66.5,30.00,South,169,2.1,4.0,93,0.00,CLR,OVC,0.00,0.0,WeatherDisplay:10.37,2013-04-19 06:27:00,
2013-04-19 02:32:00,68.6,66.5,30.00,East,101,2.2,6.9,93,0.00,CLR,OVC,0.00,0.0,WeatherDisplay:10.37,2013-04-19 06:32:00,
2013-04-19 02:37:00,68.7,66.9,29.99,SSE,147,4.5,8.1,94,0.00,CLR,OVC,0.00,0.0,WeatherDisplay:10.37,2013-04-19 06:37:00,
2013-04-19 02:42:00,68.8,67.0,29.99,SSE,155,6.1,6.1,94,0.00,CLR,OVC,0.00,0.0,WeatherDisplay:10.37,2013-04-19 06:42:00,
2013-04-19 02:47:00,69.0,66.9,29.99,ESE,103,4.5,16.1,93,0.00,CLR,OVC,0.00,0.0,WeatherDisplay:10.37,2013-04-19 06:47:00,
2013-04-19 02:52:00,69.1,67.0,29.99,SSE,167,5.3,6.9,93,0.00,CLR,OVC,0.00,0.0,WeatherDisplay:10.37,2013-04-19 06:52:00,
2013-04-19 02:57:00,69.1,67.0,29.99,South,184,5.7,11.5,93,0.00,CLR,OVC,0.00,0.0,WeatherDisplay:10.37,2013-04-19 06:57:00,
2013-04-19 03:02:00,69.0,66.9,29.99,SSE,158,6.8,12.7,93,0.00,CLR,OVC,0.00,0.0,WeatherDisplay:10.37,2013-04-19 07:02:00,
2013-04-19 03:07:00,68.8,66.7,29.99,South,184,6.1,11.5,93,0.00,CLR,OVC,0.00,0.0,WeatherDisplay:10.37,2013-04-19 07:07:00,
2013-04-19 03:12:00,68.6,66.5,29.99,SSE,162,4.2,9.2,93,0.00,CLR,OVC,0.00,0.0,WeatherDisplay:10.37,2013-04-19 07:12:00,
2013-04-19 03:17:00,68.3,66.2,29.99,South,174,6.2,9.2,93,0.00,CLR,OVC,0.00,0.0,WeatherDisplay:10.37,2013-04-19 07:17:00,
2013-04-19 03:22:00,68.1,66.3,29.99,SSE,154,2.0,3.5,94,0.00,CLR,OVC,0.00,0.0,WeatherDisplay:10.37,2013-04-19 07:22:00,
2013-04-19 03:27:00,67.9,66.1,29.98,SE,146,5.9,12.0,94,0.00,CLR,OVC,0.00,0.0,WeatherDisplay:10.37,2013-04-19 07:27:00,
2013-04-19 03:32:00,67.6,65.8,29.98,ESE,109,2.0,7.0,94,0.00,CLR,OVC,0.00,0.0,WeatherDisplay:10.37,2013-04-19 07:32:00,
2013-04-19 03:37:00,67.5,66.0,29.98,ESE,112,1.9,3.5,95,0.00,CLR,OVC,0.00,0.0,WeatherDisplay:10.37,2013-04-19 07:37:00,
2013-04-19 03:42:00,67.5,66.0,29.98,ESE,109,2.6,5.8,95,0.00,CLR,OVC,0.00,0.0,WeatherDisplay:10.37,2013-04-19 07:42:00,
2013-04-19 03:47:00,67.5,66.0,29.98,ESE,113,5.1,10.4,95,0.00,CLR,OVC,0.00,0.0,WeatherDisplay:10.37,2013-04-19 07:47:00,
2013-04-19 03:52:00,67.5,66.0,29.97,South,188,1.6,3.5,95,0.00,CLR,OVC,0.00,0.0,WeatherDisplay:10.37,2013-04-19 07:52:00,
2013-04-19 03:57:00,67.6,66.1,29.97,South,177,1.9,4.0,95,0.00,CLR,OVC,0.00,0.0,WeatherDisplay:10.37,2013-04-19 07:57:00,
2013-04-19 04:02:00,67.6,66.4,29.97,South,172,0.7,3.5,96,0.00,CLR,OVC,0.00,0.0,WeatherDisplay:10.37,2013-04-19 08:02:00,
2013-04-19 04:07:00,67.6,66.4,29.97,South,181,0.3,1.1,96,0.00,CLR,OVC,0.00,0.0,WeatherDisplay:10.37,2013-04-19 08:07:00,
2013-04-19 04:12:00,67.6,66.4,29.97,SSW,195,1.7,3.5,96,0.00,CLR,OVC,0.00,0.0,WeatherDisplay:10.37,2013-04-19 08:12:00,
2013-04-19 04:17:00,67.6,66.4,29.97,SSE,168,1.9,3.5,96,0.00,CLR,OVC,0.00,0.0,WeatherDisplay:10.37,2013-04-19 08:17:00,
2013-04-19 04:22:00,67.6,66.4,29.97,SSE,168,0.5,2.3,96,0.00,CLR,OVC,0.00,0.0,WeatherDisplay:10.37,2013-04-19 08:22:00,
2013-04-19 04:27:00,67.5,66.0,29.97,SSE,167,1.3,5.8,95,0.00,CLR,OVC,0.00,0.0,WeatherDisplay:10.37,2013-04-19 08:27:00,
2013-04-19 04:32:00,67.5,66.0,29.97,SSE,165,1.5,3.5,95,0.00,CLR,OVC,0.00,0.0,WeatherDisplay:10.37,2013-04-19 08:32:00,
2013-04-19 04:37:00,67.5,66.3,29.96,South,187,2.6,4.6,96,0.00,CLR,OVC,0.00,0.0,WeatherDisplay:10.37,2013-04-19 08:37:00,
2013-04-19 04:42:00,67.6,66.4,29.96,SSE,163,2.5,3.5,96,0.00,CLR,OVC,0.00,0.0,WeatherDisplay:10.37,2013-04-19 08:42:00,
2013-04-19 04:47:00,67.8,66.6,29.96,South,184,2.8,5.8,96,0.00,CLR,OVC,0.00,0.0,WeatherDisplay:10.37,2013-04-19 08:47:00,
2013-04-19 04:52:00,67.8,66.6,29.96,SSW,211,0.5,4.0,96,0.00,CLR,OVC,0.00,0.0,WeatherDisplay:10.37,2013-04-19 08:52:00,
2013-04-19 04:57:00,67.9,66.7,29.96,South,184,0.8,3.0,96,0.00,CLR,OVC,0.00,0.0,WeatherDisplay:10.37,2013-04-19 08:57:00,
2013-04-19 05:02:00,67.9,66.7,29.96,South,175,2.6,4.0,96,0.00,CLR,OVC,0.00,0.0,WeatherDisplay:10.37,2013-04-19 09:02:00,
2013-04-19 05:07:00,68.0,66.8,29.96,South,175,2.3,3.5,96,0.00,CLR,OVC,0.00,0.0,WeatherDisplay:10.37,2013-04-19 09:07:00,
2013-04-19 05:12:00,68.1,66.9,29.96,South,186,1.8,6.9,96,0.00,CLR,OVC,0.00,0.0,WeatherDisplay:10.37,2013-04-19 09:12:00,
2013-04-19 05:17:00,68.2,67.0,29.96,SE,140,2.9,8.1,96,0.00,CLR,OVC,0.00,0.0,WeatherDisplay:10.37,2013-04-19 09:17:00,
2013-04-19 05:22:00,68.2,67.0,29.95,South,180,2.6,6.0,96,0.00,CLR,OVC,0.00,0.0,WeatherDisplay:10.37,2013-04-19 09:22:00,
2013-04-19 05:27:00,68.3,67.1,29.95,SSE,148,1.9,5.8,96,0.00,CLR,OVC,0.00,0.0,WeatherDisplay:10.37,2013-04-19 09:27:00,
2013-04-19 05:32:00,68.4,66.9,29.95,SSW,195,2.0,5.0,95,0.00,CLR,OVC,0.00,0.0,WeatherDisplay:10.37,2013-04-19 09:32:00,
2013-04-19 05:37:00,68.4,66.9,29.95,South,188,4.5,8.1,95,0.00,CLR,OVC,0.00,0.0,WeatherDisplay:10.37,2013-04-19 09:37:00,
2013-04-19 05:42:00,68.4,66.9,29.95,SSW,201,3.1,6.9,95,0.00,CLR,OVC,0.00,0.0,WeatherDisplay:10.37,2013-04-19 09:42:00,
2013-04-19 05:47:00,68.4,66.9,29.95,SSE,167,3.4,8.1,95,0.00,CLR,OVC,0.00,0.0,WeatherDisplay:10.37,2013-04-19 09:47:00,
2013-04-19 05:52:00,68.4,66.9,29.94,SSE,153,2.3,6.0,95,0.00,CLR,OVC,0.00,0.0,WeatherDisplay:10.37,2013-04-19 09:52:00,
2013-04-19 05:57:00,68.4,66.9,29.94,SSE,167,4.8,10.4,95,0.00,CLR,OVC,0.00,0.0,WeatherDisplay:10.37,2013-04-19 09:57:00,
2013-04-19 06:02:00,68.4,66.9,29.94,SSE,165,1.2,3.5,95,0.00,CLR,OVC,0.00,0.0,WeatherDisplay:10.37,2013-04-19 10:02:00,
2013-04-19 06:07:00,68.4,66.9,29.94,ESE,113,2.3,4.6,95,0.00,CLR,OVC,0.00,0.0,WeatherDisplay:10.37,2013-04-19 10:07:00,
2013-04-19 06:12:00,68.3,66.8,29.95,SSE,165,1.2,3.5,95,0.00,OVC,,0.00,0.0,WeatherDisplay:10.37,2013-04-19 10:12:00,
2013-04-19 06:17:00,68.3,66.8,29.97,SE,128,1.6,3.5,95,0.00,OVC,,0.00,0.0,WeatherDisplay:10.37,2013-04-19 10:17:00,
2013-04-19 06:22:00,68.3,66.8,29.97,SSE,157,4.6,8.1,95,0.00,OVC,,0.00,0.0,WeatherDisplay:10.37,2013-04-19 10:22:00,
2013-04-19 06:27:00,68.5,67.0,29.97,SSE,157,4.6,8.1,95,0.00,OVC,,0.00,0.0,WeatherDisplay:10.37,2013-04-19 10:27:00,
2013-04-19 06:32:00,68.6,67.1,29.97,SSE,148,1.0,6.9,95,0.00,OVC,,0.00,0.0,WeatherDisplay:10.37,2013-04-19 10:32:00,
2013-04-19 06:37:00,68.7,67.2,29.97,SSW,198,3.4,5.0,95,0.00,OVC,,0.00,0.0,WeatherDisplay:10.37,2013-04-19 10:37:00,
2013-04-19 06:42:00,68.8,67.3,29.97,SSE,160,2.0,3.5,95,0.00,OVC,,0.00,0.0,WeatherDisplay:10.37,2013-04-19 10:42:00,
2013-04-19 06:47:00,68.7,67.2,29.97,South,181,2.6,3.5,95,0.00,OVC,,0.00,0.0,WeatherDisplay:10.37,2013-04-19 10:47:00,
2013-04-19 06:52:00,68.7,67.2,29.97,South,179,0.7,3.5,95,0.00,OVC,,0.00,0.0,WeatherDisplay:10.37,2013-04-19 10:52:00,
2013-04-19 06:57:00,68.6,67.1,29.97,South,179,0.7,3.5,95,0.00,OVC,,0.00,0.0,WeatherDisplay:10.37,2013-04-19 10:57:00,
2013-04-19 07:02:00,68.6,67.1,29.97,South,182,0.5,1.1,95,0.00,OVC,,0.00,0.0,WeatherDisplay:10.37,2013-04-19 11:02:00,
2013-04-19 07:07:00,68.7,67.2,29.97,South,171,0.8,2.3,95,0.00,OVC,,0.00,0.0,WeatherDisplay:10.37,2013-04-19 11:07:00,
2013-04-19 07:12:00,68.9,67.4,29.97,South,172,2.4,3.5,95,0.00,OVC,,0.00,0.0,WeatherDisplay:10.37,2013-04-19 11:12:00,
2013-04-19 07:17:00,69.0,67.5,29.97,SSE,150,1.6,3.5,95,0.00,OVC,,0.00,0.0,WeatherDisplay:10.37,2013-04-19 11:17:00,
2013-04-19 07:22:00,69.2,67.7,29.97,SSE,159,0.3,2.3,95,0.00,OVC,,0.00,0.0,WeatherDisplay:10.37,2013-04-19 11:22:00,
2013-04-19 07:27:00,69.4,67.9,29.97,SE,132,0.2,2.3,95,0.00,OVC,,0.00,0.0,WeatherDisplay:10.37,2013-04-19 11:27:00,
2013-04-19 07:32:00,69.5,68.0,29.97,SSE,157,0.0,3.5,95,0.01,RA,OVC,0.01,0.0,WeatherDisplay:10.37,2013-04-19 11:32:00,
2013-04-19 07:37:00,69.6,67.8,29.97,SSE,154,1.4,3.5,94,0.01,RA,OVC,0.01,0.0,WeatherDisplay:10.37,2013-04-19 11:37:00,
2013-04-19 07:42:00,69.7,67.9,29.96,ESE,121,1.5,2.0,94,0.01,OVC,,0.01,0.0,WeatherDisplay:10.37,2013-04-19 11:42:00,
2013-04-19 07:47:00,69.9,68.1,29.96,SSE,163,1.0,2.3,94,0.01,OVC,,0.01,0.0,WeatherDisplay:10.37,2013-04-19 11:47:00,
2013-04-19 07:52:00,70.4,68.6,29.96,SSE,157,2.8,3.5,94,0.01,OVC,,0.01,0.0,WeatherDisplay:10.37,2013-04-19 11:52:00,
2013-04-19 07:57:00,71.1,69.3,29.96,SSE,160,0.9,3.5,94,0.01,OVC,,0.01,0.0,WeatherDisplay:10.37,2013-04-19 11:57:00,
2013-04-19 08:03:00,71.5,69.1,29.97,SSE,157,1.2,4.6,92,0.01,OVC,,0.01,0.0,WeatherDisplay:10.37,2013-04-19 12:03:00,
2013-04-19 08:08:00,71.7,68.9,29.96,SSE,165,2.8,4.6,91,0.01,OVC,,0.01,0.0,WeatherDisplay:10.37,2013-04-19 12:08:00,
2013-04-19 08:13:00,71.8,69.0,29.96,SE,142,3.6,3.6,91,0.01,OVC,,0.01,0.0,WeatherDisplay:10.37,2013-04-19 12:13:00,
2013-04-19 08:18:00,71.9,68.8,29.97,South,175,2.5,4.6,90,0.01,OVC,,0.01,0.0,WeatherDisplay:10.37,2013-04-19 12:18:00,
2013-04-19 08:23:00,72.0,68.9,29.97,SSW,198,2.4,3.5,90,0.01,OVC,,0.01,0.0,WeatherDisplay:10.37,2013-04-19 12:23:00,
2013-04-19 08:28:00,72.2,69.1,29.97,SSW,199,4.0,5.8,90,0.01,OVC,,0.01,0.0,WeatherDisplay:10.37,2013-04-19 12:28:00,
2013-04-19 08:33:00,72.4,69.0,29.97,South,169,5.1,9.2,89,0.00,OVC,,0.01,0.0,WeatherDisplay:10.37,2013-04-19 12:33:00,
2013-04-19 08:38:00,72.8,69.4,29.97,SSE,163,3.8,8.1,89,0.00,OVC,,0.01,0.0,WeatherDisplay:10.37,2013-04-19 12:38:00,
2013-04-19 08:43:00,73.2,69.4,29.98,SSE,159,1.9,4.0,88,0.00,OVC,,0.01,0.0,WeatherDisplay:10.37,2013-04-19 12:43:00,
2013-04-19 08:48:00,73.5,69.7,29.98,South,169,4.7,9.2,88,0.00,OVC,,0.01,0.0,WeatherDisplay:10.37,2013-04-19 12:48:00,
2013-04-19 08:53:00,74.0,70.2,29.98,SW,230,5.1,11.5,88,0.00,OVC,,0.01,0.0,WeatherDisplay:10.37,2013-04-19 12:53:00,
2013-04-19 08:58:00,74.6,70.5,29.98,SSE,167,5.1,8.1,87,0.00,OVC,,0.01,0.0,WeatherDisplay:10.37,2013-04-19 12:58:00,
2013-04-19 09:03:00,75.2,71.1,29.98,SSW,196,4.3,8.1,87,0.00,OVC,,0.01,0.0,WeatherDisplay:10.37,2013-04-19 13:03:00,
2013-04-19 09:08:00,75.6,71.1,29.97,SSW,202,4.2,6.9,86,0.00,OVC,,0.01,0.0,WeatherDisplay:10.37,2013-04-19 13:08:00,
2013-04-19 09:13:00,75.7,70.9,29.97,South,185,4.4,6.9,85,0.00,OVC,,0.01,0.0,WeatherDisplay:10.37,2013-04-19 13:13:00,
2013-04-19 09:18:00,75.8,71.0,29.98,SSW,204,5.3,12.7,85,0.00,OVC,,0.01,0.0,WeatherDisplay:10.37,2013-04-19 13:18:00,
2013-04-19 09:23:00,75.9,70.7,29.98,South,184,10.3,13.8,84,0.00,OVC,,0.01,0.0,WeatherDisplay:10.37,2013-04-19 13:23:00,
2013-04-19 09:28:00,75.9,70.7,29.98,SSE,150,3.5,6.9,84,0.00,OVC,,0.01,0.0,WeatherDisplay:10.37,2013-04-19 13:28:00,
2013-04-19 09:33:00,76.0,70.8,29.98,SSW,199,7.1,13.8,84,0.00,OVC,,0.01,0.0,WeatherDisplay:10.37,2013-04-19 13:33:00,
2013-04-19 09:38:00,76.0,70.8,29.98,SSE,165,7.5,15.0,84,0.00,OVC,,0.01,0.0,WeatherDisplay:10.37,2013-04-19 13:38:00,
2013-04-19 09:43:00,75.9,70.7,29.99,SSE,165,7.2,13.8,84,0.00,OVC,,0.01,0.0,WeatherDisplay:10.37,2013-04-19 13:43:00,
2013-04-19 09:48:00,75.9,70.7,29.99,South,185,8.0,15.0,84,0.00,OVC,,0.01,0.0,WeatherDisplay:10.37,2013-04-19 13:48:00,
2013-04-19 09:53:00,75.9,70.7,29.99,SSW,208,7.6,15.0,84,0.00,OVC,,0.01,0.0,WeatherDisplay:10.37,2013-04-19 13:53:00,
2013-04-19 09:58:00,76.0,70.8,29.99,South,187,6.0,11.0,84,0.00,OVC,,0.01,0.0,WeatherDisplay:10.37,2013-04-19 13:58:00,
2013-04-19 10:03:00,76.1,70.9,29.98,South,172,4.5,10.0,84,0.00,OVC,,0.01,0.0,WeatherDisplay:10.37,2013-04-19 14:03:00,
2013-04-19 10:08:00,76.4,71.6,29.98,SSE,167,6.1,9.2,85,0.00,OVC,,0.01,0.0,WeatherDisplay:10.37,2013-04-19 14:08:00,
2013-04-19 10:13:00,77.5,72.3,29.97,South,171,4.5,5.8,84,0.00,OVC,,0.01,0.0,WeatherDisplay:10.37,2013-04-19 14:13:00,
2013-04-19 10:18:00,78.2,72.3,29.96,SSW,202,6.4,11.5,82,0.00,OVC,,0.01,0.0,WeatherDisplay:10.37,2013-04-19 14:18:00,
2013-04-19 10:23:00,79.3,72.6,29.96,South,174,3.3,8.1,80,0.00,OVC,,0.01,0.0,WeatherDisplay:10.37,2013-04-19 14:23:00,
2013-04-19 10:28:00,79.8,71.2,29.98,South,169,9.6,19.6,75,0.00,OVC,,0.01,0.0,WeatherDisplay:10.37,2013-04-19 14:28:00,
2013-04-19 10:33:00,79.5,70.9,29.99,East,89,8.1,21.9,75,0.00,OVC,,0.01,0.0,WeatherDisplay:10.37,2013-04-19 14:33:00,
2013-04-19 10:38:00,79.0,70.4,29.99,South,178,12.4,20.7,75,0.00,OVC,,0.01,0.0,WeatherDisplay:10.37,2013-04-19 14:38:00,
2013-04-19 10:43:00,78.7,70.5,29.99,South,178,6.2,17.3,76,0.00,OVC,,0.01,0.0,WeatherDisplay:10.37,2013-04-19 14:43:00,
2013-04-19 10:48:00,78.7,70.9,30.00,SE,129,6.7,11.5,77,0.00,OVC,,0.01,0.0,WeatherDisplay:10.37,2013-04-19 14:48:00,
2013-04-19 10:53:00,78.7,71.3,30.00,South,191,3.7,6.9,78,0.00,OVC,,0.01,0.0,WeatherDisplay:10.37,2013-04-19 14:53:00,
2013-04-19 10:58:00,78.8,71.7,30.00,SSW,200,0.7,4.6,79,0.00,OVC,,0.01,0.0,WeatherDisplay:10.37,2013-04-19 14:58:00,
2013-04-19 11:03:00,78.6,71.5,30.00,ESE,123,2.2,11.5,79,0.00,OVC,,0.01,0.0,WeatherDisplay:10.37,2013-04-19 15:03:00,
2013-04-19 11:08:00,78.4,71.7,30.00,SSE,166,4.9,9.2,80,0.00,OVC,,0.01,0.0,WeatherDisplay:10.37,2013-04-19 15:08:00,
2013-04-19 11:13:00,78.2,71.5,30.00,WSW,237,3.8,7.0,80,0.00,OVC,,0.01,0.0,WeatherDisplay:10.37,2013-04-19 15:13:00,
2013-04-19 11:18:00,78.2,71.5,29.99,South,180,4.1,10.4,80,0.00,OVC,,0.01,0.0,WeatherDisplay:10.37,2013-04-19 15:18:00,
2013-04-19 11:23:00,78.1,71.4,29.99,SE,136,4.8,11.5,80,0.00,OVC,,0.01,0.0,WeatherDisplay:10.37,2013-04-19 15:23:00,
2013-04-19 11:28:00,78.2,71.9,29.99,SW,220,5.2,8.1,81,0.00,OVC,,0.01,0.0,WeatherDisplay:10.37,2013-04-19 15:28:00,
2013-04-19 11:33:00,78.5,71.4,29.98,SSE,149,11.6,17.3,79,0.00,OVC,,0.01,0.0,WeatherDisplay:10.37,2013-04-19 15:33:00,
2013-04-19 11:38:00,79.3,72.2,29.98,SSW,201,6.3,12.0,79,0.00,OVC,,0.01,0.0,WeatherDisplay:10.37,2013-04-19 15:38:00,
2013-04-19 11:43:00,79.9,72.0,29.97,SSW,194,6.7,9.2,77,0.00,OVC,,0.01,0.0,WeatherDisplay:10.37,2013-04-19 15:43:00,
2013-04-19 11:48:00,80.3,71.6,29.96,SW,222,8.0,15.0,75,0.00,OVC,,0.01,0.0,WeatherDisplay:10.37,2013-04-19 15:48:00,
2013-04-19 11:53:00,80.2,71.9,29.95,South,178,8.2,15.0,76,0.00,OVC,,0.01,0.0,WeatherDisplay:10.37,2013-04-19 15:53:00,
2013-04-19 11:58:00,80.1,71.5,29.95,South,184,10.3,17.0,75,0.00,OVC,,0.01,0.0,WeatherDisplay:10.37,2013-04-19 15:58:00,
2013-04-19 12:03:00,80.2,71.9,29.95,SSW,199,6.5,15.0,76,0.00,OVC,,0.01,0.0,WeatherDisplay:10.37,2013-04-19 16:03:00,
2013-04-19 12:08:00,80.1,71.8,29.95,SSE,155,5.4,11.5,76,0.00,OVC,,0.01,0.0,WeatherDisplay:10.37,2013-04-19 16:08:00,
2013-04-19 12:13:00,79.7,71.5,29.95,SSE,168,8.4,13.0,76,0.00,OVC,,0.01,0.0,WeatherDisplay:10.37,2013-04-19 16:13:00,
2013-04-19 12:18:00,79.6,72.1,29.94,SSW,205,6.3,9.2,78,0.00,OVC,,0.01,0.0,WeatherDisplay:10.37,2013-04-19 16:18:00,
2013-04-19 12:23:00,79.1,71.6,29.95,SW,228,10.1,20.7,78,0.00,OVC,,0.01,0.0,WeatherDisplay:10.37,2013-04-19 16:23:00,
2013-04-19 12:28:00,78.6,71.2,29.94,South,171,8.7,13.8,78,0.00,OVC,,0.01,0.0,WeatherDisplay:10.37,2013-04-19 16:28:00,
2013-04-19 12:33:00,78.5,71.1,29.94,SSE,152,7.5,15.0,78,0.00,OVC,,0.01,0.0,WeatherDisplay:10.37,2013-04-19 16:33:00,
2013-04-19 12:38:00,78.2,70.8,29.94,SSE,165,9.9,11.5,78,0.00,OVC,,0.01,0.0,WeatherDisplay:10.37,2013-04-19 16:38:00,
2013-04-19 12:43:00,77.8,70.8,29.94,South,169,4.8,19.6,79,0.00,OVC,,0.01,0.0,WeatherDisplay:10.37,2013-04-19 16:43:00,
2013-04-19 12:48:00,77.5,70.8,29.94,South,170,10.4,21.9,80,0.00,OVC,,0.01,0.0,WeatherDisplay:10.37,2013-04-19 16:48:00,
2013-04-19 12:53:00,77.2,70.9,29.94,SSW,195,7.3,17.3,81,0.00,OVC,,0.01,0.0,WeatherDisplay:10.37,2013-04-19 16:53:00,
2013-04-19 12:58:00,77.4,71.5,29.94,SSE,155,8.9,11.5,82,0.00,OVC,,0.01,0.0,WeatherDisplay:10.37,2013-04-19 16:58:00,
2013-04-19 13:03:00,78.4,72.1,29.93,SSW,211,13.8,18.4,81,0.00,OVC,,0.01,0.0,WeatherDisplay:10.37,2013-04-19 17:03:00,
2013-04-19 13:08:00,79.1,72.4,29.93,South,171,7.4,11.5,80,0.00,OVC,,0.01,0.0,WeatherDisplay:10.37,2013-04-19 17:08:00,
2013-04-19 13:13:00,79.0,72.3,29.92,SSE,152,6.8,15.0,80,0.00,OVC,,0.01,0.0,WeatherDisplay:10.37,2013-04-19 17:13:00,
2013-04-19 13:18:00,78.9,71.8,29.92,South,171,9.9,25.3,79,0.00,OVC,,0.01,0.0,WeatherDisplay:10.37,2013-04-19 17:18:00,
2013-04-19 13:23:00,78.8,72.1,29.91,SSE,157,6.6,10.4,80,0.00,OVC,,0.01,0.0,WeatherDisplay:10.37,2013-04-19 17:23:00,
2013-04-19 13:28:00,78.9,72.2,29.91,SSW,201,3.8,13.8,80,0.00,OVC,,0.01,0.0,WeatherDisplay:10.37,2013-04-19 17:28:00,
2013-04-19 13:33:00,79.1,72.0,29.93,SW,226,6.5,13.8,79,0.00,OVC,,0.01,0.0,WeatherDisplay:10.37,2013-04-19 17:33:00,
2013-04-19 13:39:00,78.7,71.6,29.94,SW,217,11.5,18.0,79,0.00,OVC,,0.01,0.0,WeatherDisplay:10.37,2013-04-19 17:39:00,
2013-04-19 13:44:00,76.7,69.7,29.95,SSW,212,8.6,11.5,79,0.00,OVC,,0.02,0.0,WeatherDisplay:10.37,2013-04-19 17:44:00,
2013-04-19 13:49:00,73.9,69.4,29.96,SW,219,5.8,10.4,86,0.05,RA,OVC,0.06,0.0,WeatherDisplay:10.37,2013-04-19 17:49:00,
2013-04-19 13:54:00,72.4,69.3,29.96,SSW,205,6.2,9.2,90,0.07,RA,OVC,0.10,0.0,WeatherDisplay:10.37,2013-04-19 17:54:00,
2013-04-19 13:59:00,72.0,69.5,29.96,SE,142,5.1,6.9,92,0.09,RA,OVC,0.10,0.0,WeatherDisplay:10.37,2013-04-19 17:59:00,
2013-04-19 14:04:00,72.5,71.0,29.96,South,182,4.8,10.4,95,0.09,RA,OVC,0.10,0.0,WeatherDisplay:10.37,2013-04-19 18:04:00,
2013-04-19 14:09:00,73.2,71.7,29.95,SSE,162,5.2,9.2,95,0.09,OVC,,0.10,0.0,WeatherDisplay:10.37,2013-04-19 18:09:00,
2013-04-19 14:14:00,73.7,71.9,29.95,SSE,161,5.4,11.5,94,0.09,OVC,,0.10,0.0,WeatherDisplay:10.37,2013-04-19 18:14:00,
2013-04-19 14:19:00,74.0,71.5,29.96,South,184,9.7,21.9,92,0.09,OVC,,0.10,0.0,WeatherDisplay:10.37,2013-04-19 18:19:00,
2013-04-19 14:24:00,74.1,71.6,29.95,SSE,165,8.2,9.2,92,0.09,OVC,,0.10,0.0,WeatherDisplay:10.37,2013-04-19 18:24:00,
2013-04-19 14:29:00,74.6,72.1,29.95,South,180,3.5,10.4,92,0.09,OVC,,0.10,0.0,WeatherDisplay:10.37,2013-04-19 18:29:00,
2013-04-19 14:34:00,75.1,72.3,29.95,SSE,161,5.3,15.0,91,0.09,OVC,,0.10,0.0,WeatherDisplay:10.37,2013-04-19 18:34:00,
2013-04-19 14:39:00,75.7,72.2,29.94,SSW,204,7.1,10.4,89,0.09,OVC,,0.10,0.0,WeatherDisplay:10.37,2013-04-19 18:39:00,
2013-04-19 14:44:00,76.0,72.5,29.94,West,271,4.2,4.2,89,0.09,OVC,,0.10,0.0,WeatherDisplay:10.37,2013-04-19 18:44:00,
2013-04-19 14:49:00,76.0,72.5,29.94,West,271,4.2,4.2,89,0.04,OVC,,0.10,0.0,WeatherDisplay:10.37,2013-04-19 18:49:00,
2013-04-19 14:54:00,76.0,72.5,29.94,West,271,4.2,4.2,89,0.02,OVC,,0.10,0.0,WeatherDisplay:10.37,2013-04-19 18:54:00,
2013-04-19 14:59:00,76.0,72.5,29.94,West,271,4.2,4.2,89,0.00,OVC,,0.10,0.0,WeatherDisplay:10.37,2013-04-19 18:59:00,
2013-04-19 15:04:00,76.0,72.5,29.94,West,271,4.2,4.2,89,0.00,OVC,,0.10,0.0,WeatherDisplay:10.37,2013-04-19 19:04:00,
2013-04-19 15:09:00,76.7,71.1,29.93,SSE,151,6.2,12.7,83,0.00,OVC,,0.10,0.0,WeatherDisplay:10.37,2013-04-19 19:09:00,
2013-04-19 15:14:00,76.8,70.5,29.93,SSE,165,6.4,19.6,81,0.00,OVC,,0.10,0.0,WeatherDisplay:10.37,2013-04-19 19:14:00,
2013-04-19 15:19:00,76.7,70.4,29.92,East,100,7.9,13.0,81,0.00,OVC,,0.10,0.0,WeatherDisplay:10.37,2013-04-19 19:19:00,
2013-04-19 15:24:00,76.5,70.2,29.92,SSE,155,4.0,10.4,81,0.00,OVC,,0.10,0.0,WeatherDisplay:10.37,2013-04-19 19:24:00,
2013-04-19 15:29:00,76.4,70.1,29.90,SSE,165,1.9,10.4,81,0.00,OVC,,0.10,0.0,WeatherDisplay:10.37,2013-04-19 19:29:00,
2013-04-19 15:34:00,76.5,70.2,29.90,SE,135,3.8,9.2,81,0.00,OVC,,0.10,0.0,WeatherDisplay:10.37,2013-04-19 19:34:00,
2013-04-19 15:39:00,76.5,69.9,29.89,South,174,9.2,18.4,80,0.00,OVC,,0.10,0.0,WeatherDisplay:10.37,2013-04-19 19:39:00,
2013-04-19 15:44:00,76.6,69.6,29.89,SSE,156,6.4,8.1,79,0.00,OVC,,0.10,0.0,WeatherDisplay:10.37,2013-04-19 19:44:00,
2013-04-19 15:49:00,76.6,70.0,29.88,SSW,204,1.7,5.0,80,0.00,OVC,,0.10,0.0,WeatherDisplay:10.37,2013-04-19 19:49:00,
2013-04-19 15:54:00,76.6,69.6,29.88,SE,131,3.6,10.0,79,0.00,OVC,,0.10,0.0,WeatherDisplay:10.37,2013-04-19 19:54:00,
2013-04-19 15:59:00,76.6,69.6,29.87,SE,138,1.6,8.1,79,0.00,OVC,,0.10,0.0,WeatherDisplay:10.37,2013-04-19 19:59:00,
2013-04-19 16:04:00,76.4,69.0,29.87,South,170,7.0,11.5,78,0.00,OVC,,0.10,0.0,WeatherDisplay:10.37,2013-04-19 20:04:00,
2013-04-19 16:09:00,75.9,68.5,29.87,ESE,105,5.1,19.6,78,0.00,OVC,,0.10,0.0,WeatherDisplay:10.37,2013-04-19 20:09:00,
2013-04-19 16:14:00,75.5,68.2,29.87,SSE,162,6.2,11.5,78,0.00,OVC,,0.10,0.0,WeatherDisplay:10.37,2013-04-19 20:14:00,
2013-04-19 16:19:00,75.1,67.8,29.87,SSW,198,6.4,9.2,78,0.00,OVC,,0.10,0.0,WeatherDisplay:10.37,2013-04-19 20:19:00,
2013-04-19 16:24:00,74.8,67.8,29.86,SE,139,2.5,5.8,79,0.00,OVC,,0.10,0.0,WeatherDisplay:10.37,2013-04-19 20:24:00,
2013-04-19 16:29:00,74.6,68.0,29.87,SSE,157,3.3,8.1,80,0.00,OVC,,0.10,0.0,WeatherDisplay:10.37,2013-04-19 20:29:00,
2013-04-19 16:34:00,74.3,68.1,29.87,SSW,192,4.5,11.0,81,0.00,OVC,,0.10,0.0,WeatherDisplay:10.37,2013-04-19 20:34:00,
2013-04-19 16:39:00,73.9,68.1,29.87,ESE,121,4.9,11.5,82,0.00,OVC,,0.10,0.0,WeatherDisplay:10.37,2013-04-19 20:39:00,
2013-04-19 16:44:00,73.6,67.8,29.87,SSE,162,8.5,15.0,82,0.00,OVC,,0.10,0.0,WeatherDisplay:10.37,2013-04-19 20:44:00,
2013-04-19 16:49:00,73.3,67.8,29.87,SSW,194,3.5,11.5,83,0.00,OVC,,0.10,0.0,WeatherDisplay:10.37,2013-04-19 20:49:00,
2013-04-19 16:54:00,73.2,67.7,29.87,South,188,4.8,10.4,83,0.00,OVC,,0.10,0.0,WeatherDisplay:10.37,2013-04-19 20:54:00,
2013-04-19 16:59:00,73.0,67.9,29.87,South,188,6.0,9.2,84,0.00,OVC,,0.10,0.0,WeatherDisplay:10.37,2013-04-19 20:59:00,
2013-04-19 17:04:00,73.0,67.9,29.87,SSE,167,6.3,11.5,84,0.00,OVC,,0.10,0.0,WeatherDisplay:10.37,2013-04-19 21:04:00,
2013-04-19 17:09:00,73.0,67.9,29.87,South,181,3.9,6.9,84,0.00,OVC,,0.10,0.0,WeatherDisplay:10.37,2013-04-19 21:09:00,
2013-04-19 17:14:00,73.3,68.5,29.87,South,183,2.9,4.6,85,0.00,OVC,,0.10,0.0,WeatherDisplay:10.37,2013-04-19 21:14:00,
2013-04-19 17:19:00,73.5,68.0,29.87,SW,214,4.2,8.1,83,0.00,OVC,,0.10,0.0,WeatherDisplay:10.37,2013-04-19 21:19:00,
2013-04-19 17:24:00,73.7,68.2,29.86,SSE,161,8.9,17.3,83,0.00,OVC,,0.10,0.0,WeatherDisplay:10.37,2013-04-19 21:24:00,
2013-04-19 17:29:00,73.8,68.3,29.86,SW,230,3.8,11.5,83,0.00,OVC,,0.10,0.0,WeatherDisplay:10.37,2013-04-19 21:29:00,
2013-04-19 17:34:00,73.8,68.3,29.86,SSE,163,5.3,8.1,83,0.00,OVC,,0.10,0.0,WeatherDisplay:10.37,2013-04-19 21:34:00,
2013-04-19 17:39:00,73.9,68.4,29.86,South,172,9.5,15.0,83,0.00,OVC,,0.10,0.0,WeatherDisplay:10.37,2013-04-19 21:39:00,
2013-04-19 17:44:00,74.1,68.3,29.86,SSW,207,5.9,13.8,82,0.00,OVC,,0.10,0.0,WeatherDisplay:10.37,2013-04-19 21:44:00,
2013-04-19 17:49:00,74.3,68.1,29.86,South,190,5.7,12.7,81,0.00,OVC,,0.10,0.0,WeatherDisplay:10.37,2013-04-19 21:49:00,
2013-04-19 17:54:00,74.5,68.3,29.86,WNW,298,7.3,12.7,81,0.00,OVC,,0.10,0.0,WeatherDisplay:10.37,2013-04-19 21:54:00,
2013-04-19 17:59:00,74.6,68.4,29.86,SSW,192,8.1,19.6,81,0.00,OVC,,0.10,0.0,WeatherDisplay:10.37,2013-04-19 21:59:00,
2013-04-19 18:04:00,74.8,68.2,29.86,SSW,211,5.1,12.7,80,0.00,OVC,,0.10,0.0,WeatherDisplay:10.37,2013-04-19 22:04:00,
2013-04-19 18:09:00,75.0,68.0,29.86,SSW,198,8.9,21.9,79,0.00,OVC,,0.10,0.0,WeatherDisplay:10.37,2013-04-19 22:09:00,
2013-04-19 18:14:00,74.9,67.9,29.85,SW,219,7.8,13.8,79,0.00,OVC,,0.10,0.0,WeatherDisplay:10.37,2013-04-19 22:14:00,
2013-04-19 18:19:00,74.8,68.2,29.85,SW,229,5.2,10.0,80,0.00,OVC,,0.10,0.0,WeatherDisplay:10.37,2013-04-19 22:19:00,
2013-04-19 18:24:00,74.6,68.4,29.85,WSW,237,7.9,19.6,81,0.00,OVC,,0.10,0.0,WeatherDisplay:10.37,2013-04-19 22:24:00,
2013-04-19 18:29:00,74.3,68.1,29.85,SSW,197,9.1,15.0,81,0.00,OVC,,0.10,0.0,WeatherDisplay:10.37,2013-04-19 22:29:00,
2013-04-19 18:34:00,73.9,68.1,29.85,South,175,8.3,11.5,82,0.00,OVC,,0.10,0.0,WeatherDisplay:10.37,2013-04-19 22:34:00,
2013-04-19 18:39:00,73.7,68.2,29.85,SE,131,5.0,9.2,83,0.00,OVC,,0.10,0.0,WeatherDisplay:10.37,2013-04-19 22:39:00,
2013-04-19 18:44:00,73.6,68.1,29.85,SSE,147,2.2,5.8,83,0.00,OVC,,0.10,0.0,WeatherDisplay:10.37,2013-04-19 22:44:00,
2013-04-19 18:49:00,73.5,68.0,29.85,SSE,167,4.1,10.4,83,0.00,OVC,,0.10,0.0,WeatherDisplay:10.37,2013-04-19 22:49:00,
2013-04-19 18:54:00,73.5,68.0,29.86,ESE,106,5.6,12.7,83,0.00,OVC,,0.10,0.0,WeatherDisplay:10.37,2013-04-19 22:54:00,
2013-04-19 18:59:00,73.4,68.3,29.86,SE,140,5.4,8.1,84,0.00,OVC,,0.10,0.0,WeatherDisplay:10.37,2013-04-19 22:59:00,
2013-04-19 19:04:00,73.2,68.1,29.86,South,178,4.2,11.5,84,0.00,OVC,,0.10,0.0,WeatherDisplay:10.37,2013-04-19 23:04:00,
2013-04-19 19:09:00,73.1,68.3,29.86,South,190,2.5,9.2,85,0.00,OVC,,0.10,0.0,WeatherDisplay:10.37,2013-04-19 23:09:00,
2013-04-19 19:14:00,73.0,68.2,29.86,South,184,8.3,15.0,85,0.00,OVC,,0.10,0.0,WeatherDisplay:10.37,2013-04-19 23:14:00,
2013-04-19 19:19:00,72.9,68.5,29.86,South,184,6.0,8.1,86,0.00,OVC,,0.10,0.0,WeatherDisplay:10.37,2013-04-19 23:19:00,
2013-04-19 19:24:00,72.9,68.5,29.86,SW,216,6.2,12.7,86,0.00,OVC,,0.10,0.0,WeatherDisplay:10.37,2013-04-19 23:24:00,
2013-04-19 19:29:00,73.0,68.6,29.85,SSW,207,2.6,4.6,86,0.00,OVC,,0.10,0.0,WeatherDisplay:10.37,2013-04-19 23:29:00,
2013-04-19 19:34:00,73.0,68.9,29.85,SSE,156,5.8,11.5,87,0.00,OVC,,0.10,0.0,WeatherDisplay:10.37,2013-04-19 23:34:00,
2013-04-19 19:40:00,73.0,68.9,29.85,ENE,76,2.6,8.1,87,0.00,OVC,,0.10,0.0,WeatherDisplay:10.37,2013-04-19 23:40:00,
2013-04-19 19:45:00,73.0,68.9,29.85,SSE,155,5.2,11.5,87,0.00,OVC,,0.10,0.0,WeatherDisplay:10.37,2013-04-19 23:45:00,
2013-04-19 19:50:00,72.9,69.1,29.85,South,176,5.8,10.4,88,0.00,OVC,,0.10,0.0,WeatherDisplay:10.37,2013-04-19 23:50:00,
2013-04-19 19:55:00,72.8,69.0,29.85,South,176,9.4,13.8,88,0.00,OVC,,0.10,0.0,WeatherDisplay:10.37,2013-04-19 23:55:00,
2013-04-19 20:00:00,72.6,69.2,29.85,SSE,155,6.1,11.5,89,0.00,OVC,,0.10,0.0,WeatherDisplay:10.37,2013-04-20 00:00:00,
2013-04-19 20:05:00,72.3,68.9,29.86,South,169,7.2,15.0,89,0.00,CLR,OVC,0.10,0.0,WeatherDisplay:10.37,2013-04-20 00:05:00,
2013-04-19 20:10:00,72.1,69.0,29.86,SSE,157,7.8,11.5,90,0.00,CLR,OVC,0.10,0.0,WeatherDisplay:10.37,2013-04-20 00:10:00,
2013-04-19 20:15:00,72.0,69.2,29.86,South,169,8.0,11.5,91,0.00,CLR,OVC,0.10,0.0,WeatherDisplay:10.37,2013-04-20 00:15:00,
2013-04-19 20:20:00,71.9,69.1,29.86,South,188,7.3,12.7,91,0.00,CLR,OVC,0.10,0.0,WeatherDisplay:10.37,2013-04-20 00:20:00,
2013-04-19 20:25:00,71.8,69.0,29.86,SSE,161,7.0,11.5,91,0.00,CLR,OVC,0.10,0.0,WeatherDisplay:10.37,2013-04-20 00:25:00,
2013-04-19 20:30:00,71.7,68.9,29.86,SSE,148,6.0,10.4,91,0.00,CLR,OVC,0.10,0.0,WeatherDisplay:10.37,2013-04-20 00:30:00,
2013-04-19 20:35:00,71.7,68.9,29.86,SSE,158,5.8,10.4,91,0.00,CLR,OVC,0.10,0.0,WeatherDisplay:10.37,2013-04-20 00:35:00,
2013-04-19 20:40:00,71.8,69.0,29.86,SW,233,5.1,11.5,91,0.00,CLR,OVC,0.10,0.0,WeatherDisplay:10.37,2013-04-20 00:40:00,
2013-04-19 20:45:00,71.8,69.3,29.85,South,182,4.4,12.7,92,0.00,CLR,OVC,0.10,0.0,WeatherDisplay:10.37,2013-04-20 00:45:00,
2013-04-19 20:50:00,71.9,69.4,29.85,SSE,160,5.7,11.5,92,0.00,CLR,OVC,0.10,0.0,WeatherDisplay:10.37,2013-04-20 00:50:00,
2013-04-19 20:55:00,72.0,69.5,29.86,South,182,7.9,11.5,92,0.00,CLR,OVC,0.10,0.0,WeatherDisplay:10.37,2013-04-20 00:55:00,
2013-04-19 21:00:00,72.1,69.6,29.86,South,170,7.7,13.8,92,0.00,CLR,OVC,0.10,0.0,WeatherDisplay:10.37,2013-04-20 01:00:00,
2013-04-19 21:05:00,72.3,69.8,29.85,SSW,207,7.1,11.5,92,0.00,CLR,OVC,0.10,0.0,WeatherDisplay:10.37,2013-04-20 01:05:00,
2013-04-19 21:10:00,72.5,69.7,29.86,SSE,165,8.6,17.3,91,0.00,CLR,OVC,0.10,0.0,WeatherDisplay:10.37,2013-04-20 01:10:00,
2013-04-19 21:15:00,72.6,69.8,29.86,SSE,156,7.2,14.0,91,0.00,CLR,OVC,0.10,0.0,WeatherDisplay:10.37,2013-04-20 01:15:00,
2013-04-19 21:20:00,72.6,69.8,29.86,South,178,4.9,10.4,91,0.00,CLR,OVC,0.10,0.0,WeatherDisplay:10.37,2013-04-20 01:20:00,
2013-04-19 21:25:00,72.6,69.8,29.86,SSE,148,7.3,18.4,91,0.00,CLR,OVC,0.10,0.0,WeatherDisplay:10.37,2013-04-20 01:25:00,
2013-04-19 21:30:00,72.7,69.9,29.86,SSE,167,4.3,13.8,91,0.00,CLR,OVC,0.10,0.0,WeatherDisplay:10.37,2013-04-20 01:30:00,
2013-04-19 21:35:00,72.8,70.0,29.86,South,173,6.6,15.0,91,0.00,CLR,OVC,0.10,0.0,WeatherDisplay:10.37,2013-04-20 01:35:00,
2013-04-19 21:40:00,72.8,70.0,29.86,South,173,9.1,17.3,91,0.00,CLR,OVC,0.10,0.0,WeatherDisplay:10.37,2013-04-20 01:40:00,
2013-04-19 21:45:00,72.9,70.1,29.85,SSE,150,6.8,13.0,91,0.00,CLR,OVC,0.10,0.0,WeatherDisplay:10.37,2013-04-20 01:45:00,
2013-04-19 21:50:00,72.9,70.1,29.86,SE,140,6.3,11.5,91,0.00,CLR,OVC,0.10,0.0,WeatherDisplay:10.37,2013-04-20 01:50:00,
2013-04-19 21:55:00,73.0,69.9,29.85,East,95,5.8,11.5,90,0.00,CLR,OVC,0.10,0.0,WeatherDisplay:10.37,2013-04-20 01:55:00,
2013-04-19 22:00:00,73.1,70.0,29.85,ESE,116,7.6,12.7,90,0.00,CLR,OVC,0.10,0.0,WeatherDisplay:10.37,2013-04-20 02:00:00,
2013-04-19 22:05:00,73.2,70.1,29.85,South,180,7.5,11.5,90,0.00,CLR,OVC,0.10,0.0,WeatherDisplay:10.37,2013-04-20 02:05:00,
2013-04-19 22:10:00,73.3,70.2,29.86,SSW,205,9.8,11.5,90,0.00,CLR,OVC,0.10,0.0,WeatherDisplay:10.37,2013-04-20 02:10:00,
2013-04-19 22:15:00,73.4,70.3,29.85,SSW,199,7.8,11.5,90,0.00,CLR,OVC,0.10,0.0,WeatherDisplay:10.37,2013-04-20 02:15:00,
2013-04-19 22:20:00,73.5,70.4,29.86,South,189,6.3,18.4,90,0.00,CLR,OVC,0.10,0.0,WeatherDisplay:10.37,2013-04-20 02:20:00,
2013-04-19 22:25:00,73.7,70.6,29.86,South,180,6.5,11.5,90,0.00,CLR,OVC,0.10,0.0,WeatherDisplay:10.37,2013-04-20 02:25:00,
2013-04-19 22:30:00,73.7,70.3,29.85,SSE,159,7.4,11.5,89,0.00,CLR,OVC,0.10,0.0,WeatherDisplay:10.37,2013-04-20 02:30:00,
2013-04-19 22:35:00,73.9,70.5,29.87,NW,305,6.9,14.0,89,0.00,CLR,OVC,0.10,0.0,WeatherDisplay:10.37,2013-04-20 02:35:00,
2013-04-19 22:40:00,72.8,68.4,29.88,WSW,238,4.2,8.1,86,0.02,RA,OVC,0.12,0.0,WeatherDisplay:10.37,2013-04-20 02:40:00,
2013-04-19 22:45:00,71.0,67.3,29.87,South,175,6.5,8.1,88,0.22,RA,OVC,0.34,0.0,WeatherDisplay:10.37,2013-04-20 02:45:00,
2013-04-19 22:50:00,69.2,66.5,29.87,SW,219,4.3,6.9,91,0.34,RA,OVC,0.44,0.0,WeatherDisplay:10.37,2013-04-20 02:50:00,
2013-04-19 22:55:00,68.4,66.3,29.87,SW,234,5.1,5.8,93,0.34,RA,OVC,0.44,0.0,WeatherDisplay:10.37,2013-04-20 02:55:00,
2013-04-19 23:00:00,67.9,66.1,29.87,SSW,196,3.9,6.9,94,0.35,RA,OVC,0.45,0.0,WeatherDisplay:10.37,2013-04-20 03:00:00,
2013-04-19 23:05:00,67.6,66.1,29.88,SSW,200,2.9,5.8,95,0.36,RA,OVC,0.46,0.0,WeatherDisplay:10.37,2013-04-20 03:05:00,
2013-04-19 23:10:00,67.4,65.9,29.86,SSW,203,1.7,3.5,95,0.40,RA,OVC,0.51,0.0,WeatherDisplay:10.37,2013-04-20 03:10:00,
2013-04-19 23:15:00,67.3,65.8,29.86,South,182,0.0,1.1,95,0.42,RA,OVC,0.52,0.0,WeatherDisplay:10.37,2013-04-20 03:15:00,
2013-04-19 23:20:00,67.2,66.0,29.87,SSE,154,2.5,5.8,96,0.43,RA,OVC,0.53,0.0,WeatherDisplay:10.37,2013-04-20 03:20:00,
2013-04-19 23:25:00,67.2,66.0,29.88,SSE,168,3.6,8.0,96,0.43,RA,OVC,0.53,0.0,WeatherDisplay:10.37,2013-04-20 03:25:00,
2013-04-19 23:30:00,67.2,66.0,29.86,WSW,244,2.0,3.5,96,0.45,RA,OVC,0.56,0.0,WeatherDisplay:10.37,2013-04-20 03:30:00,
2013-04-19 23:35:00,67.1,65.9,29.86,SSW,204,0.8,3.5,96,0.49,RA,OVC,0.59,0.0,WeatherDisplay:10.37,2013-04-20 03:35:00,
2013-04-19 23:40:00,67.1,66.2,29.86,SSW,202,0.4,2.3,97,0.47,RA,OVC,0.60,0.0,WeatherDisplay:10.37,2013-04-20 03:40:00,
2013-04-19 23:45:00,67.1,66.2,29.87,SSE,163,2.8,4.6,97,0.28,RA,OVC,0.61,0.0,WeatherDisplay:10.37,2013-04-20 03:45:00,
2013-04-19 23:50:00,67.1,66.2,29.87,South,178,4.4,5.8,97,0.19,RA,OVC,0.63,0.0,WeatherDisplay:10.37,2013-04-20 03:50:00,
2013-04-19 23:55:00,67.1,66.2,29.86,South,170,1.7,5.8,97,0.20,RA,OVC,0.65,0.0,WeatherDisplay:10.37,2013-04-20 03:55:00,